Gilgo Beach, New York, United States
Lat: 40.62N, Lon: 73.4W
Wx Zone: NYZ080
Local Info
Past Weather Observations for Today

NOTE: This archive is for the closest National Weather Service station to Gilgo Beach. Information may differ from the station used for current weather conditions.

Click here for Long-term Archive

Time Weather Temperature Dewpoint Humidity Pressure Winds Precip Visibility
21:11
Overcast
61°F / 16°C 57°F / 14°C 88% 30.06 in
(1018 mb)
NE 9.2 mph
(NE 15 kph)
- 10SM
21:03
Overcast
61°F / 16°C 57°F / 14°C 88% 30.06 in
(1018 mb)
NE 11.5 mph
(NE 19 kph)
- 10SM
20:53
Overcast
61°F / 16°C 57°F / 14°C 88% 30.06 in
(1018 mb)
NE 10.4 mph
(NE 17 kph)
- 10SM
19:53
Overcast
63°F / 17°C 57°F / 14°C 83% 30.06 in
(1018 mb)
NNE 10.4 mph
(NNE 17 kph)
- 10SM
19:21
Overcast
63°F / 17°C 57°F / 14°C 83% 30.06 in
(1018 mb)
NNE 10.4 mph
(NNE 17 kph)
- 10SM
19:11
Overcast
63°F / 17°C 57°F / 14°C 83% 30.06 in
(1018 mb)
NNE 8.1 mph
(NNE 13 kph)
- 10SM
18:53
Overcast
63°F / 17°C 57°F / 14°C 83% 30.06 in
(1018 mb)
N 9.2 mph
(N 15 kph)
- 10SM
18:34
Overcast
63°F / 17°C 57°F / 14°C 83% 30.06 in
(1018 mb)
N 10.4 mph
(N 17 kph)
- 9SM
18:24
Overcast
Fog And Mist
63°F / 17°C 57°F / 14°C 83% 30.06 in
(1018 mb)
NE 8.1 mph
(NE 13 kph)
- 6SM
17:53
Overcast
63°F / 17°C 57°F / 14°C 83% 30.04 in
(1017 mb)
NE 8.1 mph
(NE 13 kph)
- 8SM
16:53
Overcast
63°F / 17°C 59°F / 15°C 88% 30.04 in
(1017 mb)
NNE 8.1 mph
(NNE 13 kph)
- 10SM
16:11
Overcast
63°F / 17°C 59°F / 15°C 88% 30.04 in
(1017 mb)
NE 9.2 mph
(NE 15 kph)
- 10SM
16:00
Overcast
63°F / 17°C 59°F / 15°C 88% 30.04 in
(1017 mb)
NE 11.5 mph
(NE 19 kph)
- 10SM
15:53
Overcast
63°F / 17°C 59°F / 15°C 88% 30.04 in
(1017 mb)
NE 10.4 mph
(NE 17 kph)
- 10SM
15:33
Overcast
63°F / 17°C 61°F / 16°C 94% 30.04 in
(1017 mb)
NE 10.4 mph
(NE 17 kph)
- 9SM
15:30
Overcast
63°F / 17°C 61°F / 16°C 94% 30.04 in
(1017 mb)
NE 10.4 mph
(NE 17 kph)
- 2 1/2SM
14:53
Overcast
Fog And Mist
63°F / 17°C 61°F / 16°C 94% 30.04 in
(1017 mb)
NE 9.2 mph
(NE 15 kph)
- 2 1/2SM
14:14
Overcast
Fog And Mist
63°F / 17°C 59°F / 15°C 88% 30.04 in
(1017 mb)
NE 9.2 mph
(NE 15 kph)
- 2 1/2SM
13:53
Overcast
Fog And Mist
63°F / 17°C 59°F / 15°C 88% 30.04 in
(1017 mb)
NE 6.9 mph
(NE 11 kph)
- 2 1/2SM
12:53
Overcast
64°F / 18°C 57°F / 14°C 78% 30.04 in
(1017 mb)
NE 9.2 mph
(NE 15 kph)
- 10SM
11:53
Overcast
63°F / 17°C 57°F / 14°C 83% 30.04 in
(1017 mb)
NE 11.5 mph
(NE 19 kph)
- 10SM
10:53
Overcast
64°F / 18°C 57°F / 14°C 78% 30.04 in
(1017 mb)
NE 13.8 mph
(NE 22 kph)
- 10SM
09:53
Overcast
63°F / 17°C 59°F / 15°C 88% 30.04 in
(1017 mb)
NE 10.4 mph
(NE 17 kph)
- 10SM
08:53
Overcast
63°F / 17°C 59°F / 15°C 88% 30.04 in
(1017 mb)
NE 10.4 mph
(NE 17 kph)
- 10SM
07:57
Overcast
63°F / 17°C 59°F / 15°C 88% 30.04 in
(1017 mb)
NE 8.1 mph
(NE 13 kph)
- 10SM
07:53
Overcast
63°F / 17°C 59°F / 15°C 88% 30.04 in
(1017 mb)
NE 9.2 mph
(NE 15 kph)
- 10SM
07:05
Overcast
61°F / 16°C 59°F / 15°C 94% 30.01 in
(1016 mb)
NE 6.9 mph
(NE 11 kph)
- 7SM
06:53
Overcast
Fog And Mist
61°F / 16°C 59°F / 15°C 94% 30.01 in
(1016 mb)
NE 6.9 mph
(NE 11 kph)
0.00 in
(0.00 mm)
5SM
05:53
Overcast
Light Rain
61°F / 16°C 59°F / 15°C 94% 30.01 in
(1016 mb)
NE 6.9 mph
(NE 11 kph)
0.05 in
(1.27 mm)
4SM
04:53
Overcast
Fog And Mist
61°F / 16°C 59°F / 15°C 94% 30.01 in
(1016 mb)
NE 4.6 mph
(NE 7 kph)
- 6SM
04:18
Overcast
Fog And Mist
61°F / 16°C 57°F / 14°C 88% 29.98 in
(1015 mb)
NE 9.2 mph
(NE 15 kph)
- 6SM
04:05
Overcast
Fog And Mist
61°F / 16°C 57°F / 14°C 88% 29.98 in
(1015 mb)
NNE 8.1 mph
(NNE 13 kph)
- 4SM
03:53
Overcast
Fog And Mist
61°F / 16°C 57°F / 14°C 88% 29.98 in
(1015 mb)
NNE 9.2 mph
(NNE 15 kph)
- 5SM
03:30
Overcast
63°F / 17°C 57°F / 14°C 83% 29.98 in
(1015 mb)
NE 8.1 mph
(NE 13 kph)
- 10SM
03:20
Overcast
63°F / 17°C 57°F / 14°C 83% 29.98 in
(1015 mb)
NE 9.2 mph
(NE 15 kph)
- 10SM
02:53
Overcast
63°F / 17°C 57°F / 14°C 83% 29.98 in
(1015 mb)
NE 8.1 mph
(NE 13 kph)
- 10SM
02:49
Overcast
63°F / 17°C 57°F / 14°C 83% 29.98 in
(1015 mb)
NE 8.1 mph
(NE 13 kph)
- 10SM
02:31
Overcast
63°F / 17°C 57°F / 14°C 83% 29.98 in
(1015 mb)
NE 9.2 mph
(NE 15 kph)
- 10SM
02:12
Overcast
63°F / 17°C 57°F / 14°C 83% 29.98 in
(1015 mb)
NNE 9.2 mph
(NNE 15 kph)
- 10SM
01:53
Overcast
63°F / 17°C 57°F / 14°C 83% 29.98 in
(1015 mb)
NNE 6.9 mph
(NNE 11 kph)
- 10SM
01:51
Overcast
63°F / 17°C 57°F / 14°C 83% 29.98 in
(1015 mb)
NNE 6.9 mph
(NNE 11 kph)
- 10SM
00:53
Overcast
63°F / 17°C 57°F / 14°C 83% 30.01 in
(1016 mb)
NE 5.8 mph
(NE 9 kph)
- 10SM
00:41
Overcast
63°F / 17°C 57°F / 14°C 83% 30.01 in
(1016 mb)
NE 6.9 mph
(NE 11 kph)
- 10SM
00:31
Overcast
63°F / 17°C 57°F / 14°C 83% 30.01 in
(1016 mb)
NE 5.8 mph
(NE 9 kph)
- 10SM
00:13
Overcast
63°F / 17°C 57°F / 14°C 83% 30.01 in
(1016 mb)
NE 6.9 mph
(NE 11 kph)
- 10SM
00:04
Overcast
63°F / 17°C 57°F / 14°C 83% 30.01 in
(1016 mb)
NE 8.1 mph
(NE 13 kph)
- 10SM
Time Weather Temperature Dewpoint Humidity Pressure Winds Precip Visibility


Weather for websites

WeatherForYou.com, LLC is not responsible for any damages or problems caused by this service. Current weather conditions are obtained from the closest station including government and personal stations which may have varying degrees of accuracy. Weather forecasts are derived from the NOAA NDFD. Like all things, this site belongs to Jesus Christ... He just trusts me to maintain it. If you have any questions or comments email webmaster@weatherforyou.com

Copyright © 2014, WeatherForYou.com LLC. All rights reserved.